Notices

What's New in latest Release from April 7th, 2021:

- Updated Glossary, including Speed of Maximum Gust, and Total Hourly Precipitation

- Updated national and regional climate services offices contacts and prices information

- Addition of station inventory lists for 1981-2010, 1971-2000, and 1961-1990 Normals.

If you haven't already, please take our survey and provide feedback about our website: https://eccc.sondage-survey.ca/f/LanguageSelection.aspx?s=442ca660-fcf1-47c0-95a9-59707d6fd709

Hourly Data Report for March 10, 2019

MIRAMICHI RCS
NEW BRUNSWICK
Current Station Operator: ECCC - MSC

47°00'34.000" N
65°27'54.000" W
33.00 m
8100989
71744
ACQ

Download Data

Hourly Data (March 2019)
Hourly Data Report for March 10, 2019
TIME
LST
Temp Definition
°C
Dew Point Definition
°C
Rel Hum Definition
%
Precip. Amount Definition
mm

Wind Dir Definition
10's deg

Wind Spd Definition
km/h
Visibility Definition
km
Stn Press Definition
kPa
Hmdx Definition


Wind Chill Definition


Weather Definition


00:00 -13.4 -20.2 57 0.0 27 6   102.82   -17 LegendNANA
01:00 -16.2 -21.0 66 0.0 27 6   102.86   -21 LegendNANA
02:00 -18.4 -22.4 71 0.0 26 2   102.93   -20 LegendNANA
03:00 -19.1 -22.5 75 0.0 21 3   102.90   -22 LegendNANA
04:00 -17.5 -21.2 73 0.0 28 8   103.03   -23 LegendNANA
05:00 -19.4 -22.6 76 0.0 27 5   103.05   -24 LegendNANA
06:00 -20.8 -23.8 77 0.0 27 2   103.05   -23 LegendNANA
07:00 -21.8 -24.5 79 0.0 23 4   103.06   -25 LegendNANA
08:00 -19.4 -23.2 72 0.0 27 5   103.13   -24 LegendNANA
09:00 -13.4 -20.3 56 0.0 27 4   103.16   -16 LegendNANA
10:00 -8.7 -18.2 46 0.0 30 3   103.14   -10 LegendNANA
11:00 -5.7 -15.2 47 0.0 21 16   103.14   -12 LegendNANA
12:00 -3.5 -14.1 44 0.0 16 11   102.97   -8 LegendNANA
13:00 -1.3 -12.8 41 0.0 8 7   102.85   -4 LegendNANA
14:00 -3.4 -10.1 60 0.0 9 13   102.79   -8 LegendNANA
15:00 -2.0 -10.1 54 0.0 7 12   102.61   -6 LegendNANA
16:00 -2.3 -10.5 54 0.0 11 22   102.56   -8 LegendNANA
17:00 -2.3 -10.3 54 0.0 12 17   102.43   -8 LegendNANA
18:00 -2.3 -10.5 53 0.0 13 21   102.29   -8 LegendNANA
19:00 -3.0 -9.6 60 0.0 12 13   102.19   -8 LegendNANA
20:00 -2.9 -9.1 62 0.0 12 16   102.05   -8 LegendNANA
21:00 -2.7 -8.8 63 0.0 11 14   101.96   -8 LegendNANA
22:00 -2.3 -8.7 62 0.0 12 18   101.72   -8 LegendNANA
23:00 -3.9 -5.0 92 0.6 14 13   101.56   -9 LegendNANA

Notes on Data Quality.

Legend

  • E = Estimated
  • M = Missing
  • NA = Not Available*
  • [empty] = Indicates an unobserved value
Date modified: